TimeMST,TemperatureF,Dew PointF,Humidity,Sea Level PressureIn,VisibilityMPH,Wind Direction,Wind SpeedMPH,Gust SpeedMPH,PrecipitationIn,Events,Conditions,WindDirDegrees,DateUTC
12:15 AM,60.8,42.8,52,30.04,10.0,Calm,Calm,-,N/A,,Overcast,0,2012-11-09 07:15:00
12:35 AM,60.8,41.0,48,30.03,10.0,Calm,Calm,-,N/A,,Scattered Clouds,0,2012-11-09 07:35:00
12:55 AM,59.0,41.0,51,30.03,10.0,Calm,Calm,-,N/A,,Clear,0,2012-11-09 07:55:00
1:15 AM,57.2,41.0,55,30.04,10.0,Calm,Calm,-,N/A,,Clear,0,2012-11-09 08:15:00
1:35 AM,55.4,41.0,58,30.03,10.0,Calm,Calm,-,N/A,,Clear,0,2012-11-09 08:35:00
1:55 AM,55.4,41.0,58,30.03,10.0,Calm,Calm,-,N/A,,Clear,0,2012-11-09 08:55:00
2:15 AM,55.4,41.0,58,30.02,10.0,South,6.9,-,N/A,,Clear,180,2012-11-09 09:15:00
2:35 AM,55.4,41.0,58,30.02,10.0,SSW,5.8,-,N/A,,Clear,200,2012-11-09 09:35:00
2:55 AM,53.6,39.2,58,30.02,10.0,Calm,Calm,-,N/A,,Clear,0,2012-11-09 09:55:00
3:15 AM,51.8,39.2,62,30.01,10.0,Calm,Calm,-,N/A,,Clear,0,2012-11-09 10:15:00
3:35 AM,53.6,39.2,58,30.01,10.0,South,4.6,-,N/A,,Clear,190,2012-11-09 10:35:00
3:55 AM,55.4,41.0,58,30.04,10.0,WSW,10.4,-,N/A,,Mostly Cloudy,250,2012-11-09 10:55:00
4:15 AM,57.2,46.4,67,30.03,10.0,West,13.8,20.7,N/A,,Drizzle,270,2012-11-09 11:15:00
4:35 AM,55.4,50.0,82,30.04,10.0,West,8.1,-,N/A,,Drizzle,260,2012-11-09 11:35:00
4:55 AM,55.4,48.2,77,30.03,10.0,West,6.9,-,N/A,,Overcast,270,2012-11-09 11:55:00
5:15 AM,55.4,50.0,82,30.03,10.0,WNW,3.5,-,N/A,,Overcast,300,2012-11-09 12:15:00
5:35 AM,53.6,50.0,88,30.03,10.0,North,5.8,-,N/A,,Overcast,360,2012-11-09 12:35:00
5:55 AM,53.6,50.0,88,30.06,10.0,NW,6.9,-,0.01,Rain,Rain,310,2012-11-09 12:55:00
6:15 AM,53.6,51.8,94,30.04,10.0,NNE,4.6,-,N/A,Rain,Light Rain,30,2012-11-09 13:15:00
6:35 AM,53.6,51.8,94,30.04,10.0,North,5.8,-,0.02,Rain,Light Rain,360,2012-11-09 13:35:00
6:55 AM,53.6,51.8,94,30.06,5.0,NW,6.9,-,0.04,Rain,Rain,320,2012-11-09 13:55:00
7:15 AM,53.6,51.8,94,30.06,7.0,NNW,6.9,-,0.02,Rain,Light Rain,340,2012-11-09 14:15:00
7:55 AM,53.6,51.8,94,30.07,10.0,North,4.6,-,0.02,Rain,Rain,10,2012-11-09 14:55:00
8:15 AM,53.6,51.8,94,30.07,10.0,North,5.8,-,0.01,,Drizzle,360,2012-11-09 15:15:00
8:35 AM,55.4,53.6,94,30.06,10.0,North,4.6,-,0.01,,Overcast,350,2012-11-09 15:35:00
8:55 AM,55.4,51.8,88,30.06,10.0,North,6.9,-,0.01,Rain,Rain,360,2012-11-09 15:55:00
9:15 AM,57.2,53.6,88,30.06,10.0,NW,6.9,-,N/A,,Light Drizzle,320,2012-11-09 16:15:00
9:35 AM,57.2,51.8,82,30.06,10.0,North,11.5,-,N/A,,Mostly Cloudy,360,2012-11-09 16:35:00
9:55 AM,59.0,51.8,77,30.06,10.0,NNE,5.8,-,N/A,,Overcast,20,2012-11-09 16:55:00
10:15 AM,59.0,50.0,72,30.06,10.0,Calm,Calm,-,N/A,,Mostly Cloudy,0,2012-11-09 17:15:00
10:35 AM,57.2,51.8,82,30.08,7.0,WNW,11.5,-,N/A,Rain,Light Rain,300,2012-11-09 17:35:00
10:55 AM,57.2,53.6,88,30.03,10.0,East,6.9,-,0.01,Rain,Light Rain,100,2012-11-09 17:55:00
11:15 AM,57.2,53.6,88,30.04,10.0,Calm,Calm,-,N/A,,Overcast,0,2012-11-09 18:15:00
11:35 AM,59.0,53.6,82,30.02,10.0,North,-9999.0,-,N/A,,Overcast,0,2012-11-09 18:35:00
11:55 AM,59.0,53.6,82,30.00,10.0,Calm,Calm,-,N/A,,Mostly Cloudy,0,2012-11-09 18:55:00
12:15 PM,60.8,51.8,72,29.99,10.0,ENE,3.5,-,N/A,,Scattered Clouds,60,2012-11-09 19:15:00
12:35 PM,62.6,53.6,72,29.98,10.0,East,4.6,-,N/A,,Scattered Clouds,100,2012-11-09 19:35:00
12:55 PM,62.6,51.8,68,29.95,10.0,ENE,4.6,-,N/A,,Clear,70,2012-11-09 19:55:00
1:15 PM,62.6,51.8,68,29.94,10.0,NE,4.6,-,N/A,,Scattered Clouds,50,2012-11-09 20:15:00
1:35 PM,66.2,51.8,60,29.92,10.0,Calm,Calm,-,N/A,,Scattered Clouds,0,2012-11-09 20:35:00
1:55 PM,66.2,51.8,60,29.92,10.0,NNW,4.6,-,N/A,,Mostly Cloudy,340,2012-11-09 20:55:00
2:15 PM,66.2,51.8,60,29.91,10.0,Calm,Calm,-,N/A,,Scattered Clouds,0,2012-11-09 21:15:00
2:35 PM,66.2,51.8,60,29.89,10.0,North,3.5,-,N/A,,Scattered Clouds,360,2012-11-09 21:35:00
2:55 PM,66.2,50.0,56,29.89,10.0,Calm,Calm,-,N/A,,Scattered Clouds,0,2012-11-09 21:55:00
3:15 PM,66.2,50.0,56,29.87,10.0,NNE,3.5,-,N/A,,Mostly Cloudy,20,2012-11-09 22:15:00
3:35 PM,68.0,50.0,52,29.87,10.0,North,3.5,-,N/A,,Scattered Clouds,360,2012-11-09 22:35:00
3:55 PM,68.0,50.0,52,29.86,10.0,North,3.5,-,N/A,,Mostly Cloudy,360,2012-11-09 22:55:00
4:15 PM,68.0,50.0,52,29.86,5.0,Calm,Calm,-,N/A,Thunderstorm,Haze,0,2012-11-09 23:15:00
4:35 PM,68.0,51.8,56,29.86,10.0,Calm,Calm,-,N/A,,Scattered Clouds,0,2012-11-09 23:35:00
4:55 PM,66.2,51.8,60,29.86,10.0,Calm,Calm,-,N/A,,Scattered Clouds,0,2012-11-09 23:55:00
5:15 PM,64.4,53.6,68,29.86,10.0,ENE,3.5,-,N/A,,Mostly Cloudy,60,2012-11-10 00:15:00
5:35 PM,62.6,53.6,72,29.86,10.0,East,6.9,-,N/A,,Overcast,90,2012-11-10 00:35:00
5:55 PM,64.4,48.2,56,29.86,10.0,SSE,5.8,-,N/A,,Overcast,160,2012-11-10 00:55:00
6:15 PM,68.0,44.6,43,29.87,10.0,WSW,3.5,-,N/A,,Mostly Cloudy,250,2012-11-10 01:15:00
6:35 PM,64.4,46.4,52,29.87,10.0,South,3.5,-,N/A,,Mostly Cloudy,190,2012-11-10 01:35:00
6:55 PM,60.8,50.0,68,29.87,10.0,South,3.5,-,N/A,,Scattered Clouds,190,2012-11-10 01:55:00
7:15 PM,60.8,46.4,59,29.88,10.0,SSE,6.9,-,N/A,,Clear,160,2012-11-10 02:15:00
7:35 PM,62.6,42.8,48,29.88,10.0,SSW,6.9,-,N/A,,Clear,200,2012-11-10 02:35:00
7:55 PM,59.0,42.8,55,29.88,10.0,South,5.8,-,N/A,,Clear,190,2012-11-10 02:55:00
8:15 PM,59.0,42.8,55,29.88,10.0,SSW,6.9,-,N/A,,Clear,200,2012-11-10 03:15:00
8:35 PM,60.8,41.0,48,29.88,10.0,SW,12.7,-,N/A,,Clear,220,2012-11-10 03:35:00